AISAT (40054 NORAD) Tracking and Keplerian Element Data

This shows tracking and keplerian element data for the satellite.

Feedback or suggestion? Click here.




ElementValue
Catalog40054
NameAISAT
Epoch Orbit21814
Epoch Day198.89974911
Epoch Year2018
RAAN309.8011
Inclination98.2045
Eccentricity0.0012287
Argument of Perigee211.3595
Mean Anonmoly148.6883
Mean Motion14.77508046
Decay Rate2.79E-06
L11 40054U 14034B 18198.89974911 .00000279 00000-0 46706-4 0 9995
L22 40054 98.2045 309.8011 0012287 211.3595 148.6883 14.77508046218147

Live tracking and technical data element details for AISAT (NORAD 40054). AISAT can be tracked NOW for your location showing map with azimuth and elevation plus other details from your city location.

Track the satellite on the map from your city or location and see movement details for azimuth, elevation, latitude, longitude, range, height, and movement on the map or in text.







IsCatalogInMostPopularTable: catalog: 40054, numindb: 45
Update: records affected: 1



GetName: 40054 AISAT

Hit Count: updated at: Thu, 19 Jul 2018 21:22:44 GMT